Hourly Data Report for October 20, 2014

All times are specified in Local Standard Time (LST). Add 1 hour to adjust for Daylight Saving Time where and when it is observed.

WINNIPEG A CS
MANITOBA

49°55'00.000" N
97°14'58.000" W
238.70 m
502S001
71849
XWG

Download Data

Hourly Data (October 2014)
Hourly Data Report for October 20, 2014
Temp Definition
°C
Dew Point Temp Definition
°C
Rel Hum Definition
%
Wind Dir Definition
10's deg

Wind Spd Definition
km/h
Visibility Definition
km
Stn Press Definition
kPa
Hmdx Definition


Wind Chill Definition


Weather Definition


TIME
00:00 2.7 1.9 95 33 7   98.59     LegendNANA
01:00 1.0 0.4 96 35 12   98.65     LegendNANA
02:00 2.3 1.7 96 1 12   98.73     LegendNANA
03:00 4.0 3.4 96 1 12   98.79     LegendNANA
04:00 5.6 3.9 89 1 10   98.83     LegendNANA
05:00 5.7 3.5 86 3 10   98.85     LegendNANA
06:00 4.7 3.2 90 32 11   98.87     LegendNANA
07:00 5.3 3.0 85 2 11   98.93     LegendNANA
08:00 5.6 3.3 85 36 7   98.97     LegendNANA
09:00 6.2 3.6 83 6 3   99.01     LegendNANA
10:00 6.5 3.5 81 9 5   99.05     LegendNANA
11:00 7.0 3.8 81 19 2   99.01     LegendNANA
12:00 8.4 4.3 76 17 3   98.99     LegendNANA
13:00 9.3 3.8 68 9 6   98.92     LegendNANA
14:00 10.4 3.5 63 13 7   98.86     LegendNANA
15:00 11.5 3.2 57 14 7   98.85     LegendNANA
16:00 11.6 3.7 58 14 8   98.87     LegendNANA
17:00 10.0 3.8 65 15 9   98.87     LegendNANA
18:00 7.0 2.6 74 13 10   98.86     LegendNANA
19:00 6.7 2.8 76 12 14   98.82     LegendNANA
20:00 6.3 2.8 78 14 14   98.83     LegendNANA
21:00 6.8 3.3 78 13 16   98.82     LegendNANA
22:00 6.3 2.7 77 15 19   98.83     LegendNANA
23:00 6.0 2.6 79 15 22   98.83     LegendNANA

Notes on Data Quality.

Legend

  • E = Estimated
  • M = Missing
  • NA = Not Available
  • ‡ = Partner data that is not subject to review by the National Climate Archives
Date modified: